sat.trackr.live / text

‹ back to catalog

WILDFIRE 5

NORAD 57769 · 2023-133N

PAYLOAD ACTIVE UNKNOWN

§ Identity

Operator
Country
US
Launch date
2023-09-02
Launch site
AFWTR
Launch vehicle
Mass (kg)
RCS (m²)

External: N2YO · Heavens-Above · Gunter

§ Orbital elements

Epoch: 2026-05-25T02:34:09.610752Z

Period
103.94 min
Inclination
81.0052°
Eccentricity
0.0007188
Mean motion
13.85463721 rev/d
Perigee alt
939.3 km
Apogee alt
949.8 km
Semi-major
7,322.7 km
B*
1.3123e-5
RAAN
29.9602°
Arg perigee
72.4499°
Mean anomaly
287.7442°
Rev number
13,783

§ Raw data

WILDFIRE 51 57769U 23133N   26145.10705568  .00000026  00000+0  13123-4 0  99972 57769  81.0052  29.9602 0007188  72.4499 287.7442 13.85463721137835

JSON: /api/v1/satellites/57769 · /tle

For live sub-satellite position, see the globe view (requires WebGL).

§ Visibility from observer

Set your observer location to see the next 7 days of passes ≥ 10°. The values pass through the URL so the page stays shareable.

No JS? Fill the form by hand. The geolocation button needs JavaScript.

§ Radio — SatNOGS DB

ModeDescriptionDownlinkUplink
BPSK S-band telemetry 2.278 GHz

1 transmitter · refreshed weekly from db.satnogs.org